Date,TemperatureHighF,TemperatureAvgF,TemperatureLowF,DewpointHighF,DewpointAvgF,DewpointLowF,HumidityHigh,HumidityAvg,HumidityLow,PressureMaxIn,PressureMinIn,WindSpeedMaxMPH,WindSpeedAvgMPH,GustSpeedMaxMPH,PrecipitationSumIn
2013-3-1,41.6,37.5,32.4,20.6,14.7,9.3,49,39,28,29.93,29.75,12,6,17,0.00
2013-3-2,34.5,31.7,28.8,11.7,8.6,5.3,43,38,30,29.90,29.84,10,6,17,0.00
2013-3-3,37.2,31.6,28.2,11.2,5.9,1.9,48,34,23,29.93,29.84,15,7,22,0.00
2013-3-4,39.9,31.6,25.7,5.9,1.5,-2.7,42,28,18,30.05,29.93,15,8,25,0.00
2013-3-5,48.6,35.6,23.5,12.4,4.8,-1.6,52,30,14,30.08,29.84,9,3,17,0.00
2013-3-6,39.0,35.3,33.1,31.9,27.9,10.2,87,75,32,30.05,29.69,13,3,18,0.35
2013-3-7,45.1,37.3,28.0,27.2,16.6,11.4,71,45,28,30.20,30.02,15,4,21,0.00
2013-3-8,47.7,39.1,32.4,20.6,14.3,10.1,58,37,24,30.32,30.17,16,7,25,0.00
2013-3-9,58.2,40.4,25.9,21.5,11.9,4.2,63,36,12,30.38,30.26,7,2,11,0.00
2013-3-10,63.0,49.5,32.7,19.6,8.1,2.6,44,21,11,30.32,30.20,12,6,20,0.00
2013-3-11,59.0,50.6,42.1,38.0,27.8,1.2,74,44,14,30.20,29.90,14,8,25,0.00
2013-3-12,57.7,50.0,39.9,49.4,32.1,15.1,85,53,30,29.99,29.78,17,9,30,0.98
2013-3-13,46.8,38.0,29.7,21.6,10.7,2.5,57,34,17,30.08,29.90,18,7,27,0.00
2013-3-14,42.1,34.9,30.4,5.8,0.9,-4.8,33,24,16,30.14,30.05,16,9,30,0.00
2013-3-15,55.4,41.5,26.5,19.7,9.5,0.9,46,28,15,30.11,29.81,12,4,18,0.00
2013-3-16,47.7,41.8,35.8,30.1,24.2,18.5,74,51,36,29.93,29.67,12,3,15,0.00
2013-3-17,39.4,36.5,34.2,29.0,17.2,7.3,75,49,29,30.26,29.93,10,3,15,0.00
2013-3-18,36.1,33.7,30.7,28.6,18.2,6.5,81,56,30,30.29,29.90,9,3,15,0.00
2013-3-19,54.9,40.9,32.7,41.3,18.1,-3.2,89,52,13,29.93,29.75,23,6,36,0.29
2013-3-20,48.9,39.5,28.8,14.9,-0.3,-7.4,42,19,14,29.99,29.75,18,7,35,0.00
2013-3-21,35.6,30.0,23.7,13.6,-1.8,-11.0,41,26,18,29.90,29.78,15,7,25,0.00
2013-3-22,42.4,32.5,21.4,6.1,1.8,-5.9,42,28,18,30.02,29.87,14,6,23,0.00
2013-3-23,50.9,36.3,23.1,17.3,6.8,-1.0,54,32,14,30.02,29.93,14,4,19,0.00
2013-3-24,40.6,34.3,26.8,24.1,11.7,4.0,64,41,23,30.02,29.67,6,2,11,0.00
2013-3-25,36.1,34.0,32.2,31.2,27.1,22.3,83,76,61,29.73,29.55,7,1,9,0.25
2013-3-26,47.5,38.9,32.4,34.0,21.4,6.7,88,56,19,30.02,29.73,9,3,19,0.05
2013-3-27,47.5,40.5,35.6,19.1,14.4,6.4,49,36,19,30.14,30.02,14,7,25,0.00
2013-3-28,46.0,40.2,31.5,21.7,17.0,11.5,57,40,25,30.23,30.08,13,5,25,0.00
2013-3-29,54.7,43.9,36.5,23.1,16.0,3.7,53,35,13,30.26,30.14,10,3,20,0.00
2013-3-30,57.9,44.6,32.2,21.8,11.2,0.0,54,30,12,30.26,30.11,8,3,15,0.00
2013-3-31,50.0,46.0,42.4,42.9,26.2,0.7,85,54,14,30.11,29.78,14,5,19,0.20